STARLINK-34131 (64182 NORAD) Tracking and Keplerian Element Data

This shows tracking and keplerian element data for the satellite.

Feedback or suggestion? Click here.




ElementValue
Catalog64182
NameSTARLINK-34131
Epoch Orbit3276
Epoch Day353.60122235
Epoch Year2025
RAAN103.1024
Inclination53.1586
Eccentricity0.0001522
Argument of Perigee86.0708
Mean Anonmoly274.0467
Mean Motion15.30205435
Decay Rate0.00016161
L11 64182U 25113N 25353.60122235 .00016161 00000+0 55649-3 0 9998
L22 64182 53.1586 103.1024 0001522 86.0708 274.0467 15.30205435 32767



Live tracking and technical data element details for STARLINK-34131 (NORAD 64182). STARLINK-34131 can be tracked NOW for your location showing map with azimuth and elevation plus other details from your city location.







IsCatalogInMostPopularTable: catalog: 64182, numindb: 3
Update: records affected: 1



GetName: 64182 STARLINK-34131

Hit Count: updated at: Mon, 09 Feb 2026 07:55:32 GMT